QPF
0.00 0.02 0.03 0.02 0.03 0.04 0.02 0.02 0.01 0.01 0.01 0.02 0.01 0.01 0.01 0.01 0.00 0.01 0.01 0.01 0.01 0.02 0.04 0.05 0.04 0.03 0.03 0.03 0.02 0.02 0.03 0.02 0.02 0.01 0.02 0.01 0.02 0.02 0.02 0.01 0.01 0.01 0.02
0.02 0.02 0.04 0.02 0.03 0.04 0.03 0.02 0.01 0.01 0.01 0.01 0.01 0.01 0.02 0.02 0.01 0.02 0.02 0.02 0.02 0.03 0.05 0.06 0.05 0.03 0.02 0.02 0.02 0.02 0.03 0.02 0.01 0.01 0.01 0.01 0.02 0.03 0.03 0.02 0.01 0.01 0.02
0.02 0.02 0.04 0.03 0.03 0.02 0.03 0.02 0.01 0.01 0.01 0.01 0.01 0.02 0.03 0.03 0.03 0.03 0.03 0.02 0.03 0.04 0.04 0.05 0.04 0.02 0.02 0.01 0.01 0.02 0.02 0.01 0.01 0.00 0.00 0.01 0.02 0.03 0.02 0.02 0.03 0.03 0.04
0.02 0.02 0.02 0.02 0.02 0.02 0.02 0.02 0.01 0.01 0.01 0.01 0.01 0.02 0.03 0.02 0.02 0.03 0.03 0.04 0.03 0.03 0.03 0.03 0.03 0.02 0.02 0.01 0.01 0.01 0.02 0.01 0.00 0.00 0.00 0.00 0.01 0.03 0.03 0.03 0.04 0.04 0.04
0.02 0.02 0.01 0.01 0.01 0.02 0.02 0.01 0.01 0.01 0.01 0.01 0.01 0.01 0.03 0.03 0.02 0.02 0.03 0.03 0.03 0.02 0.02 0.02 0.02 0.02 0.03 0.02 0.02 0.01 0.01 0.01 0.00 0.00 0.00 0.00 0.01 0.04 0.04 0.05 0.05 0.04 0.03
0.02 0.02 0.01 0.01 0.01 0.02 0.02 0.02 0.01 0.01 0.01 0.02 0.02 0.02 0.02 0.03 0.02 0.02 0.02 0.02 0.02 0.02 0.02 0.02 0.02 0.02 0.02 0.02 0.02 0.01 0.01 0.01 0.00 0.00 0.00 0.00 0.01 0.05 0.05 0.06 0.05 0.04 0.03
0.02 0.01 0.01 0.01 0.01 0.02 0.03 0.03 0.02 0.01 0.01 0.02 0.02 0.02 0.03 0.03 0.03 0.03 0.02 0.02 0.02 0.02 0.02 0.02 0.01 0.02 0.02 0.02 0.02 0.02 0.01 0.01 0.00 0.00 0.00 0.01 0.03 0.05 0.05 0.04 0.04 0.04 0.03
0.02 0.01 0.01 0.01 0.01 0.02 0.03 0.03 0.03 0.02 0.02 0.02 0.03 0.04 0.04 0.03 0.03 0.04 0.02 0.03 0.03 0.03 0.03 0.02 0.02 0.01 0.02 0.02 0.02 0.02 0.01 0.01 0.01 0.00 0.01 0.01 0.03 0.03 0.04 0.02 0.02 0.02 0.03
0.01 0.01 0.01 0.01 0.01 0.02 0.03 0.03 0.02 0.02 0.02 0.03 0.03 0.03 0.03 0.03 0.03 0.03 0.03 0.04 0.05 0.06 0.05 0.04 0.02 0.02 0.01 0.01 0.02 0.02 0.01 0.01 0.01 0.01 0.01 0.01 0.02 0.03 0.03 0.02 0.02 0.02 0.02
0.01 0.01 0.01 0.01 0.01 0.01 0.02 0.03 0.03 0.02 0.02 0.02 0.02 0.02 0.02 0.02 0.02 0.02 0.03 0.03 0.04 0.06 0.07 0.06 0.03 0.02 0.02 0.02 0.01 0.01 0.01 0.01 0.01 0.01 0.01 0.01 0.03 0.03 0.03 0.03 0.02 0.02 0.02
0.01 0.00 0.00 0.00 0.01 0.01 0.02 0.03 0.04 0.03 0.02 0.02 0.01 0.01 0.01 0.01 0.01 0.02 0.02 0.02 0.03 0.05 0.07 0.08 0.06 0.03 0.02 0.02 0.02 0.01 0.01 0.01 0.01 0.01 0.01 0.01 0.03 0.03 0.04 0.03 0.03 0.02 0.03
0.01 0.01 0.00 0.00 0.00 0.01 0.01 0.02 0.03 0.04 0.03 0.02 0.02 0.02 0.02 0.01 0.01 0.02 0.02 0.02 0.03 0.03 0.04 0.07 0.07 0.05 0.03 0.02 0.02 0.02 0.02 0.02 0.01 0.01 0.02 0.01 0.03 0.04 0.05 0.04 0.03 0.03 0.03
0.01 0.01 0.01 0.01 0.01 0.01 0.01 0.01 0.01 0.02 0.03 0.03 0.03 0.03 0.03 0.02 0.01 0.01 0.01 0.01 0.02 0.02 0.03 0.05 0.05 0.05 0.03 0.02 0.01 0.01 0.02 0.02 0.01 0.01 0.01 0.02 0.04 0.05 0.04 0.03 0.03 0.03 0.04
0.03 0.02 0.01 0.01 0.02 0.03 0.03 0.02 0.02 0.02 0.02 0.04 0.04 0.04 0.04 0.03 0.02 0.01 0.02 0.02 0.02 0.03 0.02 0.04 0.05 0.04 0.03 0.03 0.02 0.02 0.02 0.03 0.02 0.01 0.02 0.02 0.04 0.05 0.04 0.03 0.04 0.03 0.04
0.04 0.03 0.02 0.01 0.01 0.02 0.02 0.03 0.03 0.03 0.02 0.03 0.05 0.06 0.06 0.05 0.03 0.02 0.02 0.04 0.04 0.04 0.03 0.03 0.05 0.05 0.04 0.04 0.03 0.02 0.02 0.02 0.02 0.01 0.02 0.03 0.03 0.04 0.05 0.05 0.05 0.04 0.03
0.04 0.03 0.02 0.01 0.01 0.01 0.02 0.02 0.03 0.03 0.03 0.03 0.04 0.05 0.06 0.06 0.04 0.03 0.02 0.03 0.05 0.06 0.05 0.05 0.06 0.07 0.05 0.05 0.04 0.02 0.02 0.02 0.02 0.01 0.02 0.02 0.02 0.03 0.04 0.06 0.06 0.05 0.05
0.02 0.02 0.03 0.02 0.01 0.01 0.01 0.02 0.02 0.02 0.03 0.03 0.03 0.03 0.04 0.04 0.04 0.04 0.03 0.03 0.03 0.04 0.06 0.07 0.07 0.09 0.07 0.04 0.04 0.03 0.03 0.03 0.02 0.02 0.02 0.02 0.01 0.02 0.03 0.06 0.07 0.06 0.06
0.01 0.01 0.02 0.01 0.01 0.01 0.01 0.01 0.01 0.02 0.02 0.02 0.03 0.04 0.05 0.03 0.02 0.02 0.02 0.02 0.03 0.05 0.06 0.08 0.08 0.10 0.09 0.06 0.04 0.03 0.03 0.04 0.03 0.03 0.03 0.02 0.01 0.01 0.02 0.03 0.04 0.06 0.06
0.00 0.00 0.01 0.01 0.01 0.01 0.01 0.01 0.01 0.01 0.02 0.02 0.02 0.03 0.05 0.05 0.03 0.02 0.02 0.02 0.02 0.04 0.07 0.08 0.07 0.09 0.09 0.07 0.05 0.04 0.04 0.04 0.04 0.04 0.04 0.03 0.02 0.01 0.02 0.02 0.03 0.04 0.05
0.00 0.00 0.00 0.01 0.01 0.01 0.01 0.01 0.01 0.01 0.02 0.02 0.03 0.03 0.03 0.03 0.03 0.02 0.02 0.03 0.03 0.03 0.06 0.08 0.08 0.08 0.07 0.05 0.05 0.04 0.03 0.04 0.05 0.05 0.05 0.04 0.03 0.02 0.02 0.02 0.02 0.02 0.03
0.00 0.00 0.00 0.01 0.01 0.01 0.01 0.01 0.01 0.01 0.01 0.02 0.03 0.04 0.03 0.02 0.01 0.01 0.01 0.02 0.03 0.04 0.05 0.06 0.07 0.07 0.06 0.04 0.04 0.04 0.04 0.04 0.05 0.05 0.05 0.05 0.04 0.04 0.03 0.02 0.01 0.01 0.02
0.00 0.00 0.00 0.00 0.01 0.01 0.01 0.01 0.01 0.01 0.02 0.03 0.03 0.03 0.03 0.02 0.01 0.01 0.01 0.01 0.02 0.03 0.04 0.05 0.06 0.06 0.05 0.05 0.04 0.03 0.03 0.04 0.05 0.05 0.03 0.02 0.03 0.04 0.04 0.03 0.02 0.01 0.01
0.00 0.00 0.00 0.00 0.01 0.01 0.02 0.02 0.01 0.02 0.04 0.03 0.03 0.03 0.02 0.01 0.01 0.01 0.01 0.02 0.03 0.04 0.04 0.04 0.04 0.05 0.05 0.04 0.03 0.03 0.02 0.02 0.03 0.04 0.03 0.02 0.02 0.02 0.03 0.03 0.02 0.02 0.01
0.00 0.00 0.00 0.00 0.01 0.01 0.02 0.03 0.03 0.04 0.05 0.04 0.04 0.03 0.02 0.01 0.01 0.01 0.02 0.02 0.03 0.04 0.04 0.04 0.04 0.05 0.05 0.05 0.04 0.03 0.02 0.01 0.01 0.02 0.03 0.03 0.02 0.02 0.02 0.02 0.02 0.01 0.01
0.00 0.00 0.00 0.00 0.00 0.01 0.01 0.01 0.02 0.04 0.04 0.04 0.05 0.03 0.02 0.02 0.01 0.02 0.03 0.03 0.03 0.04 0.04 0.04 0.04 0.04 0.04 0.04 0.04 0.04 0.04 0.03 0.02 0.02 0.03 0.03 0.03 0.02 0.02 0.02 0.02 0.01 0.01
0.00 0.00 0.00 0.00 0.00 0.00 0.01 0.01 0.02 0.03 0.05 0.07 0.07 0.05 0.03 0.02 0.02 0.02 0.03 0.04 0.04 0.04 0.05 0.06 0.05 0.04 0.04 0.04 0.04 0.04 0.04 0.04 0.04 0.03 0.03 0.03 0.03 0.03 0.02 0.02 0.02 0.01 0.01
MSLP
1019.42 1018.80 1018.12 1017.47 1016.93 1016.55 1016.32 1016.23 1016.23 1016.26 1016.29 1016.28 1016.26 1016.23 1016.23 1016.28 1016.39 1016.55 1016.73 1016.90 1017.03 1017.13 1017.20 1017.25 1017.33 1017.44 1017.60 1017.80 1018.01 1018.21 1018.37 1018.46 1018.50 1018.48 1018.44 1018.39 1018.37 1018.37 1018.39 1018.44 1018.48 1018.52 1018.56
1019.65 1018.98 1018.25 1017.56 1016.99 1016.57 1016.32 1016.21 1016.19 1016.22 1016.27 1016.30 1016.33 1016.36 1016.43 1016.55 1016.70 1016.89 1017.08 1017.24 1017.37 1017.45 1017.51 1017.55 1017.62 1017.73 1017.89 1018.08 1018.28 1018.47 1018.62 1018.71 1018.75 1018.74 1018.72 1018.69 1018.68 1018.68 1018.72 1018.76 1018.80 1018.84 1018.89
1019.82 1019.10 1018.33 1017.61 1017.01 1016.57 1016.29 1016.16 1016.13 1016.16 1016.22 1016.28 1016.35 1016.45 1016.57 1016.73 1016.92 1017.12 1017.32 1017.47 1017.58 1017.65 1017.70 1017.75 1017.82 1017.93 1018.10 1018.29 1018.49 1018.68 1018.83 1018.94 1018.99 1019.01 1019.01 1019.01 1019.02 1019.04 1019.08 1019.12 1019.16 1019.20 1019.24
1019.92 1019.17 1018.37 1017.64 1017.02 1016.56 1016.27 1016.11 1016.06 1016.08 1016.14 1016.21 1016.31 1016.44 1016.59 1016.78 1016.99 1017.20 1017.39 1017.53 1017.64 1017.71 1017.76 1017.82 1017.91 1018.04 1018.22 1018.43 1018.65 1018.85 1019.01 1019.14 1019.22 1019.28 1019.31 1019.34 1019.38 1019.42 1019.46 1019.50 1019.53 1019.56 1019.60
1019.97 1019.19 1018.39 1017.66 1017.04 1016.58 1016.27 1016.09 1016.01 1015.99 1016.03 1016.09 1016.19 1016.33 1016.50 1016.70 1016.91 1017.12 1017.30 1017.44 1017.54 1017.62 1017.70 1017.79 1017.92 1018.09 1018.30 1018.53 1018.77 1018.98 1019.17 1019.32 1019.43 1019.51 1019.58 1019.65 1019.71 1019.76 1019.80 1019.84 1019.87 1019.90 1019.93
1019.97 1019.20 1018.42 1017.71 1017.11 1016.65 1016.32 1016.10 1015.97 1015.91 1015.90 1015.94 1016.02 1016.14 1016.31 1016.51 1016.72 1016.92 1017.10 1017.24 1017.36 1017.47 1017.59 1017.73 1017.91 1018.13 1018.37 1018.64 1018.89 1019.11 1019.31 1019.47 1019.60 1019.70 1019.80 1019.88 1019.96 1020.02 1020.08 1020.11 1020.14 1020.16 1020.20
1019.98 1019.22 1018.48 1017.80 1017.24 1016.78 1016.43 1016.17 1015.98 1015.85 1015.79 1015.77 1015.82 1015.93 1016.09 1016.28 1016.49 1016.68 1016.86 1017.02 1017.17 1017.32 1017.48 1017.68 1017.92 1018.19 1018.48 1018.76 1019.02 1019.25 1019.44 1019.59 1019.71 1019.82 1019.92 1020.02 1020.11 1020.18 1020.23 1020.28 1020.31 1020.34 1020.39
1020.00 1019.28 1018.59 1017.97 1017.43 1016.98 1016.61 1016.30 1016.04 1015.85 1015.71 1015.65 1015.67 1015.76 1015.91 1016.10 1016.30 1016.50 1016.69 1016.87 1017.04 1017.23 1017.45 1017.71 1018.00 1018.32 1018.64 1018.93 1019.19 1019.40 1019.56 1019.68 1019.78 1019.87 1019.96 1020.05 1020.14 1020.22 1020.28 1020.33 1020.37 1020.42 1020.49
1020.06 1019.40 1018.78 1018.21 1017.71 1017.27 1016.86 1016.50 1016.18 1015.91 1015.72 1015.62 1015.61 1015.69 1015.84 1016.04 1016.24 1016.45 1016.64 1016.83 1017.02 1017.24 1017.51 1017.81 1018.15 1018.50 1018.84 1019.13 1019.37 1019.55 1019.66 1019.74 1019.80 1019.86 1019.92 1020.00 1020.08 1020.16 1020.23 1020.30 1020.36 1020.43 1020.52
1020.17 1019.58 1019.02 1018.52 1018.05 1017.61 1017.18 1016.76 1016.38 1016.06 1015.82 1015.70 1015.68 1015.77 1015.93 1016.13 1016.34 1016.54 1016.73 1016.92 1017.12 1017.35 1017.64 1017.97 1018.34 1018.71 1019.05 1019.33 1019.54 1019.68 1019.75 1019.77 1019.79 1019.81 1019.84 1019.90 1019.98 1020.06 1020.14 1020.21 1020.30 1020.39 1020.51
1020.33 1019.81 1019.33 1018.88 1018.44 1017.99 1017.53 1017.07 1016.64 1016.28 1016.02 1015.90 1015.89 1016.00 1016.17 1016.38 1016.59 1016.77 1016.94 1017.10 1017.28 1017.51 1017.80 1018.14 1018.51 1018.88 1019.22 1019.48 1019.67 1019.77 1019.79 1019.78 1019.75 1019.74 1019.76 1019.80 1019.87 1019.95 1020.04 1020.13 1020.23 1020.34 1020.48
1020.53 1020.08 1019.67 1019.26 1018.84 1018.38 1017.89 1017.40 1016.94 1016.56 1016.31 1016.20 1016.22 1016.35 1016.54 1016.75 1016.94 1017.10 1017.22 1017.33 1017.48 1017.67 1017.93 1018.26 1018.62 1018.99 1019.31 1019.56 1019.72 1019.80 1019.80 1019.76 1019.71 1019.68 1019.69 1019.73 1019.80 1019.89 1019.99 1020.08 1020.19 1020.30 1020.45
1020.77 1020.38 1020.02 1019.64 1019.22 1018.75 1018.24 1017.72 1017.25 1016.88 1016.65 1016.57 1016.62 1016.78 1016.98 1017.18 1017.34 1017.44 1017.50 1017.55 1017.63 1017.78 1018.00 1018.29 1018.64 1018.99 1019.31 1019.55 1019.70 1019.77 1019.76 1019.72 1019.67 1019.65 1019.66 1019.71 1019.79 1019.89 1019.99 1020.08 1020.18 1020.29 1020.43
1021.02 1020.69 1020.36 1020.00 1019.57 1019.08 1018.55 1018.02 1017.56 1017.20 1017.00 1016.96 1017.05 1017.23 1017.43 1017.60 1017.71 1017.75 1017.74 1017.72 1017.73 1017.81 1017.99 1018.25 1018.58 1018.92 1019.22 1019.46 1019.61 1019.68 1019.69 1019.66 1019.64 1019.64 1019.67 1019.75 1019.84 1019.95 1020.04 1020.13 1020.21 1020.30 1020.41
1021.29 1020.99 1020.68 1020.32 1019.87 1019.36 1018.82 1018.29 1017.84 1017.52 1017.36 1017.35 1017.47 1017.65 1017.83 1017.97 1018.02 1017.99 1017.90 1017.80 1017.75 1017.79 1017.93 1018.16 1018.47 1018.79 1019.09 1019.33 1019.49 1019.57 1019.60 1019.60 1019.61 1019.64 1019.71 1019.81 1019.93 1020.04 1020.13 1020.20 1020.26 1020.31 1020.39
1021.55 1021.28 1020.97 1020.59 1020.13 1019.60 1019.05 1018.53 1018.11 1017.82 1017.70 1017.72 1017.84 1018.01 1018.16 1018.24 1018.22 1018.13 1017.98 1017.83 1017.74 1017.74 1017.86 1018.08 1018.37 1018.69 1018.98 1019.22 1019.38 1019.47 1019.52 1019.55 1019.59 1019.66 1019.76 1019.89 1020.03 1020.14 1020.23 1020.28 1020.30 1020.32 1020.36
1021.80 1021.54 1021.23 1020.83 1020.35 1019.82 1019.27 1018.77 1018.38 1018.13 1018.03 1018.06 1018.17 1018.30 1018.40 1018.42 1018.34 1018.19 1018.00 1017.83 1017.72 1017.72 1017.84 1018.07 1018.35 1018.66 1018.94 1019.16 1019.32 1019.41 1019.46 1019.51 1019.58 1019.68 1019.81 1019.96 1020.11 1020.23 1020.31 1020.34 1020.34 1020.32 1020.33
1022.04 1021.79 1021.47 1021.06 1020.57 1020.04 1019.51 1019.04 1018.68 1018.45 1018.36 1018.38 1018.46 1018.54 1018.57 1018.53 1018.40 1018.21 1018.01 1017.84 1017.76 1017.78 1017.92 1018.16 1018.45 1018.75 1019.01 1019.20 1019.33 1019.41 1019.45 1019.50 1019.58 1019.70 1019.85 1020.01 1020.17 1020.29 1020.36 1020.38 1020.36 1020.31 1020.29
1022.26 1022.04 1021.71 1021.30 1020.81 1020.29 1019.79 1019.36 1019.02 1018.82 1018.72 1018.72 1018.74 1018.76 1018.72 1018.61 1018.44 1018.23 1018.04 1017.90 1017.86 1017.93 1018.11 1018.37 1018.66 1018.94 1019.17 1019.33 1019.42 1019.47 1019.49 1019.53 1019.60 1019.72 1019.88 1020.05 1020.21 1020.33 1020.40 1020.40 1020.36 1020.30 1020.26
1022.48 1022.27 1021.96 1021.55 1021.09 1020.60 1020.13 1019.74 1019.44 1019.24 1019.13 1019.08 1019.05 1018.99 1018.87 1018.71 1018.50 1018.29 1018.12 1018.03 1018.05 1018.17 1018.39 1018.67 1018.96 1019.21 1019.40 1019.52 1019.57 1019.57 1019.57 1019.59 1019.65 1019.76 1019.92 1020.09 1020.24 1020.36 1020.41 1020.41 1020.37 1020.30 1020.24
1022.69 1022.50 1022.21 1021.83 1021.40 1020.96 1020.54 1020.20 1019.93 1019.74 1019.61 1019.51 1019.40 1019.26 1019.08 1018.86 1018.63 1018.42 1018.28 1018.24 1018.31 1018.48 1018.72 1019.01 1019.28 1019.50 1019.64 1019.71 1019.72 1019.69 1019.66 1019.66 1019.71 1019.82 1019.97 1020.12 1020.27 1020.37 1020.42 1020.42 1020.37 1020.30 1020.24
1022.87 1022.72 1022.47 1022.13 1021.75 1021.36 1021.01 1020.71 1020.48 1020.30 1020.15 1020.00 1019.83 1019.62 1019.37 1019.11 1018.86 1018.65 1018.54 1018.53 1018.63 1018.81 1019.06 1019.33 1019.56 1019.74 1019.83 1019.86 1019.83 1019.78 1019.74 1019.74 1019.79 1019.89 1020.03 1020.18 1020.31 1020.40 1020.43 1020.42 1020.36 1020.29 1020.22
1023.00 1022.90 1022.70 1022.42 1022.10 1021.78 1021.50 1021.26 1021.07 1020.90 1020.74 1020.56 1020.33 1020.07 1019.77 1019.47 1019.21 1019.00 1018.89 1018.88 1018.98 1019.15 1019.36 1019.58 1019.76 1019.88 1019.92 1019.91 1019.87 1019.82 1019.79 1019.80 1019.87 1019.97 1020.11 1020.24 1020.34 1020.41 1020.42 1020.39 1020.33 1020.25 1020.17
1023.06 1023.02 1022.88 1022.67 1022.43 1022.19 1021.99 1021.82 1021.67 1021.53 1021.37 1021.17 1020.91 1020.61 1020.29 1019.96 1019.68 1019.46 1019.33 1019.30 1019.36 1019.47 1019.62 1019.75 1019.85 1019.90 1019.90 1019.86 1019.81 1019.78 1019.78 1019.83 1019.92 1020.04 1020.17 1020.28 1020.36 1020.40 1020.38 1020.33 1020.24 1020.15 1020.07
1023.02 1023.05 1022.98 1022.85 1022.70 1022.56 1022.44 1022.34 1022.25 1022.15 1022.00 1021.80 1021.54 1021.23 1020.89 1020.56 1020.25 1020.01 1019.86 1019.77 1019.76 1019.78 1019.82 1019.85 1019.85 1019.82 1019.77 1019.72 1019.68 1019.68 1019.73 1019.82 1019.95 1020.08 1020.21 1020.30 1020.34 1020.33 1020.28 1020.19 1020.09 1019.98 1019.89
1022.87 1022.97 1022.99 1022.95 1022.89 1022.85 1022.82 1022.80 1022.78 1022.72 1022.61 1022.43 1022.19 1021.88 1021.55 1021.21 1020.91 1020.64 1020.44 1020.29 1020.18 1020.09 1020.01 1019.91 1019.81 1019.70 1019.60 1019.53 1019.51 1019.55 1019.64 1019.77 1019.93 1020.07 1020.19 1020.25 1020.25 1020.20 1020.10 1019.98 1019.86 1019.74 1019.64
Thickness
5708 5710 5710 5709 5709 5709 5709 5708 5708 5709 5709 5709 5710 5710 5710 5710 5710 5710 5710 5711 5711 5712 5712 5713 5713 5713 5713 5714 5714 5714 5714 5713 5713 5714 5714 5714 5714 5714 5714 5713 5714 5714 5714
5708 5707 5707 5707 5706 5706 5706 5705 5705 5705 5706 5706 5707 5707 5707 5707 5707 5707 5708 5708 5709 5709 5709 5710 5709 5709 5710 5710 5710 5710 5710 5710 5710 5710 5710 5711 5711 5711 5711 5711 5711 5711 5710
5705 5704 5704 5703 5703 5702 5702 5702 5702 5702 5702 5703 5703 5703 5703 5704 5704 5704 5705 5705 5705 5706 5706 5706 5706 5706 5706 5706 5707 5707 5707 5707 5706 5707 5707 5707 5707 5708 5708 5708 5708 5708 5707
5701 5700 5700 5699 5699 5698 5698 5698 5698 5698 5699 5699 5700 5700 5700 5700 5701 5701 5701 5701 5702 5702 5703 5703 5703 5703 5703 5703 5703 5703 5703 5703 5703 5703 5703 5704 5704 5704 5704 5704 5704 5704 5704
5696 5695 5695 5695 5694 5694 5694 5694 5694 5694 5694 5695 5695 5696 5696 5697 5697 5697 5698 5698 5698 5699 5699 5699 5700 5699 5699 5700 5700 5700 5699 5699 5699 5700 5700 5700 5701 5701 5701 5701 5701 5701 5701
5690 5690 5690 5690 5690 5689 5689 5689 5689 5690 5690 5690 5691 5691 5692 5693 5693 5694 5694 5694 5694 5695 5695 5695 5696 5696 5696 5696 5696 5696 5696 5696 5696 5696 5696 5696 5697 5697 5698 5698 5698 5697 5697
5684 5684 5684 5684 5684 5684 5684 5684 5684 5685 5685 5686 5686 5687 5687 5688 5688 5689 5689 5689 5690 5690 5691 5691 5692 5692 5692 5692 5692 5692 5692 5692 5692 5692 5693 5693 5693 5693 5694 5694 5694 5694 5693
5678 5678 5679 5679 5679 5679 5679 5679 5679 5679 5680 5680 5681 5681 5682 5682 5683 5683 5684 5684 5685 5686 5686 5687 5687 5687 5688 5688 5688 5688 5688 5688 5688 5688 5688 5689 5689 5690 5690 5690 5690 5690 5690
5672 5672 5672 5673 5673 5673 5673 5673 5673 5673 5674 5674 5674 5675 5675 5676 5677 5678 5678 5679 5680 5681 5681 5682 5682 5682 5683 5683 5683 5683 5683 5683 5684 5684 5684 5685 5685 5686 5686 5686 5686 5686 5686
5665 5665 5666 5666 5666 5667 5666 5666 5667 5667 5667 5667 5668 5668 5669 5669 5670 5671 5672 5673 5674 5675 5676 5676 5677 5677 5678 5678 5678 5678 5678 5679 5679 5679 5679 5680 5681 5681 5681 5682 5682 5681 5681
5657 5658 5659 5659 5660 5660 5660 5660 5660 5660 5660 5661 5661 5661 5662 5663 5664 5664 5665 5666 5668 5669 5670 5670 5671 5671 5672 5672 5672 5673 5673 5673 5674 5674 5675 5675 5676 5676 5677 5677 5677 5677 5677
5650 5651 5652 5653 5653 5653 5653 5653 5653 5653 5653 5653 5654 5654 5655 5656 5656 5657 5658 5659 5661 5662 5663 5663 5664 5665 5665 5665 5666 5666 5667 5668 5669 5669 5670 5670 5671 5672 5672 5672 5672 5672 5672
5644 5645 5645 5646 5646 5647 5646 5646 5646 5645 5645 5646 5646 5647 5647 5648 5649 5650 5651 5652 5653 5654 5656 5656 5657 5657 5658 5659 5659 5660 5661 5662 5663 5663 5664 5665 5665 5666 5666 5667 5667 5667 5666
5637 5638 5639 5639 5639 5639 5639 5639 5638 5638 5638 5638 5639 5640 5640 5640 5641 5642 5643 5644 5645 5647 5648 5649 5649 5650 5651 5652 5652 5653 5654 5655 5656 5657 5658 5659 5660 5660 5661 5661 5661 5661 5661
5631 5632 5632 5632 5632 5632 5632 5631 5631 5631 5631 5631 5631 5632 5633 5633 5633 5634 5635 5636 5638 5640 5641 5642 5643 5643 5643 5644 5644 5645 5647 5648 5649 5650 5651 5652 5653 5654 5654 5655 5655 5655 5655
5624 5625 5625 5625 5625 5625 5624 5624 5624 5623 5623 5623 5624 5625 5626 5626 5626 5626 5627 5628 5630 5632 5634 5635 5635 5636 5636 5636 5637 5637 5639 5640 5641 5642 5644 5645 5646 5646 5647 5648 5648 5649 5648
5617 5618 5618 5618 5617 5617 5617 5617 5616 5616 5616 5616 5617 5617 5618 5618 5619 5619 5620 5621 5622 5624 5626 5626 5627 5627 5627 5628 5628 5629 5630 5631 5633 5634 5636 5637 5638 5639 5640 5640 5641 5641 5641
5609 5609 5610 5610 5609 5609 5610 5609 5609 5609 5609 5609 5609 5610 5610 5610 5611 5611 5612 5613 5614 5616 5618 5618 5618 5618 5618 5619 5619 5619 5621 5622 5624 5625 5627 5628 5629 5631 5631 5632 5633 5633 5634
5601 5602 5602 5602 5602 5602 5602 5602 5602 5601 5601 5601 5602 5602 5602 5602 5603 5604 5604 5605 5606 5608 5609 5610 5610 5610 5609 5609 5609 5610 5612 5613 5615 5616 5618 5619 5621 5622 5623 5624 5624 5625 5625
5593 5594 5594 5594 5595 5595 5594 5594 5594 5593 5593 5593 5593 5594 5594 5594 5595 5596 5596 5597 5598 5599 5599 5600 5601 5601 5601 5600 5600 5601 5602 5604 5606 5607 5608 5610 5612 5613 5613 5614 5615 5616 5616
5584 5585 5586 5586 5587 5587 5586 5586 5585 5585 5584 5585 5585 5586 5586 5587 5588 5589 5589 5589 5589 5590 5591 5591 5592 5592 5591 5591 5591 5591 5592 5594 5596 5598 5600 5601 5602 5603 5604 5604 5605 5606 5606
5575 5576 5577 5578 5579 5580 5580 5579 5578 5577 5576 5576 5576 5577 5578 5579 5580 5581 5580 5581 5581 5582 5582 5582 5583 5582 5582 5582 5583 5583 5583 5584 5586 5588 5590 5591 5592 5593 5594 5594 5595 5596 5596
5566 5567 5570 5570 5571 5572 5572 5571 5570 5569 5568 5568 5569 5569 5569 5571 5572 5572 5572 5572 5573 5573 5573 5574 5574 5575 5573 5573 5574 5575 5576 5576 5575 5577 5579 5580 5581 5583 5583 5584 5585 5585 5586
5557 5558 5560 5561 5563 5563 5564 5563 5563 5562 5561 5561 5561 5560 5561 5562 5563 5563 5563 5563 5563 5564 5565 5566 5566 5567 5567 5565 5564 5565 5567 5568 5567 5567 5568 5569 5571 5572 5573 5574 5574 5575 5575
5548 5548 5550 5552 5553 5554 5555 5555 5555 5554 5553 5553 5552 5552 5552 5553 5554 5554 5555 5555 5555 5555 5556 5557 5557 5558 5559 5558 5557 5556 5556 5556 5558 5558 5557 5558 5559 5561 5562 5563 5563 5564 5565
5537 5538 5540 5542 5543 5545 5545 5546 5546 5546 5545 5544 5544 5544 5544 5544 5544 5545 5545 5545 5546 5546 5547 5548 5548 5549 5549 5549 5549 5549 5549 5550 5549 5549 5548 5547 5548 5550 5551 5553 5553 5554 5554